Home   Weather   Detroit   Past weeks
Flag for USA

Past Weather in Detroit, Michigan, USA — Yesterday and Last 2 Weeks

Now
76 °F

Clear.


Feels Like: 77 °F
Forecast: 95 / 79 °F
Wind: 3 mph from East

Location: Detroit City Airport

Current Time: Jul 20, 2019 at 1:45:11 am

Latest Report: Jul 20, 2019 at 12:53 am


Visibility: 10 mi

Pressure: 29.86 "Hg

Humidity: 77%

Dew Point: 68 °F

Location of DetroitLocation

Past Weather in Detroit — Graph

°F

Detroit Temperature Yesterday

Maximum temperature yesterday: 92 °F (at 1:53 pm)
Minimum temperature yesterday: 77 °F (at 11:53 pm)
Average temperature yesterday: 83 °F

High & Low Weather Summary for the Past Weeks

 TemperatureHumidityPressure
High92 °F (Jul 5, 2:55 pm)94% (Jul 16, 5:53 pm)30.14 "Hg (Jul 16, 5:53 pm)
Low59 °F (Jul 8, 5:53 am)34% (Jul 14, 1:53 pm)29.24 "Hg (Jul 11, 6:53 am)
Average77 °F66%29.94 "Hg
* Reported Jul 4 11:53 pm — Jul 19 11:53 pm, Detroit. Weather by CustomWeather, © 2019

Note: Actual official high and low records may vary slightly from our data, if they occured in-between our weather recording intervals... More about our weather records

Advertising

Detroit Weather History for the Previous 24 Hours

Scroll right to see more
 ConditionsComfort  
Time TempWeatherWind HumidityBarometerVisibility
11:53 pm
Fri, Jul 19
77 °FClear.No wind69%29.83 "Hg10 mi
10:53 pm78 °FClear.5 mph71%29.86 "Hg10 mi
9:53 pm78 °FClear.No wind76%29.85 "Hg10 mi
8:53 pm79 °FSunny.3 mph72%29.84 "Hg10 mi
7:53 pm80 °FSunny.7 mph62%29.81 "Hg10 mi
6:53 pm81 °FSunny.15 mph62%29.81 "Hg10 mi
5:53 pm80 °FSunny.9 mph69%29.83 "Hg10 mi
4:56 pm83 °FLight rain. Sunny.5 mph74%29.85 "Hg10 mi
3:53 pm85 °FLight rain. Broken clouds.7 mph83%29.85 "Hg9 mi
3:22 pm83 °FLight rain. Fog.9 mph88%29.84 "Hg3 mi
3:00 pm87 °FThunderstorms. Broken clouds.10 mph72%29.85 "Hg5 mi
2:38 pm91 °FThundershowers. Partly sunny.15 mph61%29.84 "Hg10 mi
1:53 pm92 °FScattered clouds.13 mph62%29.83 "Hg10 mi
12:53 pm90 °FPartly sunny.9 mph66%29.83 "Hg10 mi
12:05 pm89 °FPartly sunny.14 mph70%29.83 "Hg10 mi
11:53 am89 °FScattered clouds.13 mph68%29.82 "Hg10 mi
11:07 am86 °FScattered clouds.12 mph72%29.84 "Hg10 mi
10:35 am86 °FPartly sunny.10 mph75%29.85 "Hg10 mi
9:53 am85 °FPassing clouds.12 mph75%29.87 "Hg10 mi
8:53 am83 °FSunny.10 mph77%29.86 "Hg10 mi
7:53 am81 °FScattered clouds.13 mph82%29.84 "Hg10 mi
6:53 am79 °FPassing clouds.9 mph84%29.82 "Hg10 mi
5:53 am78 °FPassing clouds.7 mph84%29.82 "Hg10 mi
4:53 am79 °FPassing clouds.14 mph82%29.81 "Hg10 mi
3:53 am78 °FPassing clouds.9 mph82%29.25 "Hg10 mi
2:53 am79 °FPassing clouds.10 mph79%29.82 "Hg10 mi
1:53 am79 °FPassing clouds.9 mph77%29.82 "Hg10 mi
Weather by CustomWeather, © 2019

See weather overview